Terug naar catalogus

STARLINK-11282

ActiefCommunicatieVLEO
NORAD 60992·PAYLOAD·🇺🇸 United States

Gelanceerd Sep 5, 2024 vanaf Cape Canaveral Space Force Station

Loading…

Volgende Passages (komende 24 uur)

TLE

VersSource: CelesTrak SupGP

Epoch: Sep 15, 2026, 02:40 UTC

1 60992C 24158C   26258.11159722 -.00031067  00000+0 -25584-3 0  2580
2 60992  53.1570  67.4449 0001094  76.5284  11.2165 15.69731410    13

Volg STARLINK-11282 in realtime met AllMySat

Download on the App Store